Location: Prairie Dale
(45.6972°N, 104.5033°W)
Time: 04:31:21
(UTC+00:00)

AO-109 - Pass Details

Date: 02 July 2022
Orbit: 469 x 506 km, 60.7° (Epoch: 14 August)

Event Time Altitude Azimuth Distance (km) Brightness Sun altitude
Exits shadow 10:03:25 - 184° (S) 1,741 ? -9.9°
Reaches altitude 10° 10:03:42 10° 182° (S) 1,639 ? -9.9°
Maximum altitude 10:06:51 27° 123° (ESE) 946 ? -9.5°
Drops below altitude 10° 10:10:03 10° 64° (ENE) 1,669 ? -9.1°
Sets 10:12:25 0° 52° (NE) 2,563 ? -8.8°
